Regional Weather Roundup
Issued by NWS

Home | Current Version | Previous Version | Text Only | Print | Product List | Glossary On
Versions: 1 2 3 4 5 6 7 8 9 10 11 12 13 14 15 16 17 18 19 20 21 22 23 24 25 26 27 28 29 30 31 32 33 34 35 36 37 38 39 40 41 42 43 44 45 46 47 48 49 50
000
ASUS44 KOUN 060010
RWROK

WEATHER ROUNDUP FOR OKLAHOMA
NATIONAL WEATHER SERVICE NORMAN OK
600 PM CST THU MAR 05 2015

NOTE: "FAIR" INDICATES FEW OR NO CLOUDS BELOW 12,000 FEET WITH NO
      SIGNIFICANT WEATHER AND/OR OBSTRUCTIONS TO VISIBILITY.

OKZ001>007-009>012-014-015-017-060100-
NORTHWEST OKLAHOMA AND THE PANHANDLE

CITY           SKY/WX    TMP DP  RH WIND       PRES   REMARKS
GAGE           CLEAR     46  20  35 SW10      30.36S
6HR MIN TEMP:  40; 6HR MAX TEMP:  49;

GUYMON         CLEAR     45  19  35 SW7       30.31S
$$

OKZ016-021>023-033>039-044-045-060100-
SOUTHWEST OKLAHOMA

CITY           SKY/WX    TMP DP  RH WIND       PRES   REMARKS
LAWTON/REGL    CLEAR     41  17  38 S6        30.51F
6HR MIN TEMP:  35; 6HR MAX TEMP:  43;

LAWTON/FT SILL CLEAR     40  17  38 SW6       30.49S
FREDERICK      CLEAR     41  15  35 S8        30.47F
CLINTON        CLEAR     38  21  50 SW12      30.45F WCI  30
HOBART         CLEAR     38  20  48 S14       30.47S WCI  30
ALTUS AFB      CLEAR     40  20  43 S13       30.47F WCI  33
$$

OKZ018>020-024>031-060100-
CENTRAL OKLAHOMA

CITY           SKY/WX    TMP DP  RH WIND       PRES   REMARKS
OKLAHOMA CITY  PTCLDY    40  14  34 SW10      30.49S WCI  33
6HR MIN TEMP:  35; 6HR MAX TEMP:  43;

OKC/WILEY POST CLEAR     39  17  41 S10       30.49F WCI  32
OKC/TINKER AFB CLEAR     40  14  35 W6        30.48S
STILLWATER     CLEAR     42  10  27 W7        30.48F
GUTHRIE        CLEAR     41  16  36 S8        30.49S
$$

OKZ008-013-054>072-060100-
NORTHEAST OKLAHOMA

CITY           SKY/WX    TMP DP  RH WIND       PRES   REMARKS
TULSA          CLEAR     42  12  29 NW5       30.50S
6HR MIN TEMP:  36; 6HR MAX TEMP:  45;

TULSA/JONES    CLEAR     43   6  21 CALM      30.51S
PONCA CITY     CLEAR     41  17  38 S7        30.47S
BARTLESVILLE   CLEAR     40  13  33 W6        30.50S
MUSKOGEE       CLEAR     38  17  42 CALM      30.54F
$$

OKZ032-040>043-046>053-073>077-060100-
SOUTH CENTRAL/SOUTHEAST OKLAHOMA

CITY           SKY/WX    TMP DP  RH WIND       PRES   REMARKS
ARDMORE/DWNTWN CLEAR     39  18  41 CALM      30.53S
MCALESTER      CLEAR     39  18  42 E5        30.53F
$$




USA.gov is the U.S. government's official web portal to all federal, state and local government web resources and services.